AirNav   Textron
 
 481 users online  

VA82 Mount Vernon Hospital Heliport
Alexandria, Virginia, USA

GOING TO ALEXANDRIA?


FAA INFORMATION EFFECTIVE 14 SEPTEMBER 2017

Location

FAA Identifier: VA82
Lat/Long: 38-44-25.2800N / 077-04-34.4300W
38-44.421333N / 077-04.573833W
38.7403556 / -77.0762306
(estimated)
Elevation: 38 ft. / 12 m (estimated)
Variation: 09W (1985)
From city: 4 miles S of ALEXANDRIA, VA
Time zone: UTC -4 (UTC -5 during Standard Time)
Zip code: 22306

Heliport Operations

Heliport use: Private use, MEDICAL USE.
Activation date: 03/1990
Control tower: no
ARTCC: WASHINGTON CENTER
FSS: LEESBURG FLIGHT SERVICE STATION
Attendance: MON-FRI 24 HOURS/DAY
Wind indicator: yes
Segmented circle: no

Heliport Communications

WX ASOS at DCA (7 nm N): 132.65 (703-412-8140)
WX AWOS-3 at CGS (16 nm NE): 121.225 (301-864-5497)

Nearby radio navigation aids

VOR radial/distance  VOR name  Freq  Var
DCAr204/7.4WASHINGTON VOR/DME111.0009W
ADWr258/10.6ANDREWS VORTAC113.1010W
OTTr288/15.7NOTTINGHAM VORTAC113.7010W
AMLr131/21.7ARMEL VOR/DME113.5008W
BRVr037/27.5BROOKE VORTAC114.5009W
BALr228/32.3BALTIMORE VORTAC115.1011W
CSNr087/37.4CASANOVA VORTAC116.3006W

 
NDB name  Hdg/Dist  Freq  Var  ID
OXONN247/2.833211WDCA -.. -.-. .-
DAVEE028/5.022309WDAA -.. .- .-
GEORGETOWN178/11.632309WGTN --. - -.
SHANNON042/33.423710WEZF . --.. ..-.
ELLICOTT214/35.737111WFND ..-. -. -..
GOODWIN LAKE118/37.522708WGDX --. -.. -..-
INSTITUTE221/39.040408WIUB .. ..- -...

Heliport Services

Runway Information

Helipad H1

Dimensions: 75 x 75 ft. / 23 x 23 m
Surface: concrete
Latitude: 38-44.421333N
Longitude: 077-04.573833W
Elevation: 38.0 ft.
Traffic pattern: leftleft

Heliport Ownership and Management from official FAA records

Ownership: Privately-owned
Owner: MT VERNON HOSPITAL
2501 PARKERS LANE
ALEXANDRIA, VA 22306
Phone 703-664-7213
Manager: LARRY RAMSDELL
2501 PARKER'S LANE
ALEXANDRIA, VA 22306
Phone 703-664-7889

Instrument Procedures

There are no published instrument procedures at VA82.

Some nearby airports with instrument procedures:

KDAA - Davison Army Airfield (5 nm W)
KVKX - Potomac Airfield (6 nm E)
W32 - Washington Executive Airport/Hyde Field (7 nm E)
KDCA - Ronald Reagan Washington National Airport (7 nm N)
2W5 - Maryland Airport (9 nm S)
KADW - Joint Base Andrews (11 nm NE)
KCGS - College Park Airport (16 nm NE)
KNYG - Quantico Marine Corps Airfield / Turner Field (18 nm SW)
W00 - Freeway Airport (19 nm NE)
 
Loc | Ops | Rwys | IFR | FBO | Links
Com | Nav | Svcs | Stats | Notes


 
Area around VA82 (Mount Vernon Hospital Heliport)
 
Road maps at: MapQuest Bing Google
 
Aerial photo
No photo
 
Sectional chart

 
Airport distance calculator
Flying to Mount Vernon Hospital Heliport? Find the distance to fly.

From to VA82

Sunrise and sunset
Times for 23-Sep-2017
 Local
(UTC-4)
 Zulu
(UTC)
Morning civil twilight06:3110:31
Sunrise06:5810:58
Sunset19:0423:04
Evening civil twilight19:3023:30

Current date and time
Zulu (UTC)  23-Sep-2017 11:08:19
Local (UTC-4)  23-Sep-2017 07:08:19
 
METAR
KDAA 
4nm W 
231056Z AUTO 00000KT 10SM CLR 15/15 A3007 RMK AO2 SLP186 T01540148 $
KVKX 
6nm E 
SuperAWOS
230955Z AUTO 00000KT 10SM 14/12 A3005
KDCA 
7nm N 
231052Z 34004KT 10SM SCT250 19/14 A3007 RMK AO2 SLP183 T01890144 $
KADW 
11nm NE 
231058Z AUTO 33003KT 10SM CLR 17/12 A3006 RMK AO2 SLP184 T01660116
KCGS 
16nm NE 
231045Z AUTO 00000KT 10SM CLR 14/14 A3006 RMK AO1 T01400135
KNYG 
17nm SW 
231056Z AUTO 32004KT 10SM 18/17 A3007 RMK AO2 SLP184 T01830167 $
TAF
KDAA 
4nm W 
230100Z 2301/2407 VRB06KT 9999 FEW200 QNH2998INS TX29/2318Z TN17/2309Z LAST NO AMDS AFT 2301 NEXT 2509
KDCA 
7nm N 
230831Z 2309/2406 VRB03KT P6SM SCT250
KADW 
11nm NE 
230900Z 2309/2415 35006KT 9999 FEW200 QNH3000INS TX29/2318Z TN15/2311Z
KNYG 
17nm SW 
2309/2409 34006KT 9999 SKC QNH3003INS BECMG 2314/2316 VRB06KT 9999 FEW030 SCT120 QNH2999INS T18/2312Z T29/2321Z
NOTAMs
Click for the latest NOTAMs
NOTAMs are issued by the DoD/FAA and will open in a separate window not controlled by AirNav.

 

 
 

Would you like to see your business listed on this page?

 If your business provides an interesting product or service to pilots, flight crews, aircraft, or users of the Mount Vernon Hospital Heliport, you should consider listing it here.  To start the listing process, click on the button below
 
Add a business
 

Other Pages about Mount Vernon Hospital Heliport

Update a link
 
Copyright © AirNav, LLC. All rights reserved. Privacy Policy  Contact